Airfield :
LOGIN :

Register | Disclaimer

   EN    FR    IT 

 










Legend :    VFR   Marginal VFR   IFR   Intensive IFR   Very Intensive IFR
Visi :
Ceiling :
>= 8 km
>= 3000ft
5 to 8 km
1000 to 3000 ft
1500m to 5 km
500 to 1000 ft
800 to 1500m
200 to 500 ft
< 800m
< 200 ft
Symbols :   Thunderstorms  Fog  Heavy snow  Heavy precipitations  Wind > 20 kt
SIGMETs :     Misc.  Thunderstorms  Icing  Turbulence  Mountain Waves  Volcanic Ashes







- Airport Elevation : 39 ft
- IATA code : TRS


LIPQ - Friuli Venezia Giulia Apt. Trieste

CURRENT METAR :
  • 181320Z 21005KT 180V250 CAVOK 28/18 Q1018

EXPIRED METARs :
  • 181250Z 22007KT CAVOK 28/18 Q1019
  • 181220Z 21006KT 180V240 9999 FEW040 28/19 Q1019
  • 181150Z VRB04KT CAVOK 28/17 Q1019
  • 181120Z 23004KT 150V310 CAVOK 28/17 Q1019

TAF TAF LIPQ
Valid from the 18 at 12:00 until the 19 at 12:00 UTC


181100Z 1812/1912 VRB05KT 9999 FEW040
No reported NOTAMs for that airfield.



MET'MAP, your aeronautical weather chart ! - Copyright ORBIFLY December 2007 - Disclaimer

ORBIFLY MET'MAP TEAM :

Programming & Development : Alexandra Zaïnal
Concept & Development : Baudouin d'Aumeries
Co-Development & Prog : Marc-Olivier Méhu
Technical & hardware support : Manuel Goepfert

Contact : metmap@orbifly.com




SOURCES & CREDITS :

   NOAA